Weather History for Las Vegas, NV

Change the Weather History Date:

Thursday, October 25, 2012

  Actual Average Record
Temperature  
Mean Temperature 62 °F 66 °F  
Max Temperature 71 °F 77 °F 92 °F (1937)
Min Temperature 52 °F 55 °F 32 °F (1945)
Degree Days  
Heating Degree Days 3 2  
Month to date heating degree days 12 19  
Since 1 July heating degree days 12 20  
Cooling Degree Days 0 3  
Month to date cooling degree days 223 164  
Year to date cooling degree days 3994 3541  
Growing Degree Days 12 (Base 50)    
Moisture  
Dew Point 21 °F    
Average Humidity 23    
Maximum Humidity 35    
Minimum Humidity 11    
Precipitation  
Precipitation 0.00 in 0.01 in 0.08 in (1972)
Month to date precipitation 0.94 0.20  
Year to date precipitation 4.82 3.26  
Snow  
Snow 0.00 in 0.00 in 0.00 in ()
Month to date snowfall T 0.0  
Since 1 July snowfall T 0.0  
Since 1 September snowfall T 0.0  
Snow Depth 0.00 in    
Sea Level Pressure  
Sea Level Pressure 30.06 in    
Wind  
Wind Speed 6 mph (SSE)    
Max Wind Speed 18 mph    
Max Gust Speed 23 mph    
Visibility 10 miles    
Events      
T = Trace of Precipitation, MM = Missing Value Source: NWS Daily Summary

Daily Weather History Graph

Daily Weather History Graph

Search for Another Location

Airport:

Trip Planner

Search our weather history database for the weather conditions in past years. The results will help you decide how hot, cold, wet, or windy it might be!

Date:

Astronomy

Oct. 25, 2012 Rise Set
Actual Time 6:57 AM PDT 5:51 PM PDT
Civil Twilight 6:30 AM PDT 6:17 PM PDT
Nautical Twilight 6:00 AM PDT 6:47 PM PDT
Astronomical Twilight 5:30 AM PDT 7:17 PM PDT
Moon 3:34 PM PDT (10/25) 3:04 AM PDT (10/25)
Length of Visible Light 11h 47m
Length of Day
10h 54m
Waxing Gibbous, 85% of the Moon is Illuminated
Oct 25
Waxing Gibbous
Oct 29
Full
Nov 6
Last Quarter
Nov 13
New
Nov 20
First Quarter

Hourly Weather History & Observations

Time (PDT) Temp. Dew Point Humidity Pressure Visibility Wind Dir Wind Speed Gust Speed Precip Events Conditions
12:56 AM 57.0 °F 26.1 °F 30% 29.98 in 10.0 mi South 8.1 mph - N/A   Clear
1:56 AM 57.0 °F 25.0 °F 29% 30.00 in 10.0 mi SW 8.1 mph - N/A   Partly Cloudy
2:56 AM 55.0 °F 26.1 °F 33% 30.01 in 10.0 mi SSW 9.2 mph - N/A   Partly Cloudy
3:56 AM 54.0 °F 26.1 °F 34% 30.01 in 10.0 mi South 10.4 mph - N/A   Partly Cloudy
4:56 AM 53.6 °F 26.6 °F 35% 30.06 in 10.0 mi SSW 9.2 mph - N/A   Scattered Clouds
5:56 AM 53.6 °F 26.6 °F 35% 30.07 in 10.0 mi SSW 9.2 mph - N/A   Partly Cloudy
6:56 AM 53.1 °F 26.1 °F 35% 30.05 in 10.0 mi South 5.8 mph - N/A   Partly Cloudy
7:56 AM 53.6 °F 26.6 °F 35% 30.10 in 10.0 mi South 8.1 mph - N/A   Clear
8:56 AM 57.9 °F 24.1 °F 27% 30.09 in 10.0 mi South 4.6 mph - N/A   Partly Cloudy
9:56 AM 62.1 °F 18.0 °F 18% 30.09 in 10.0 mi Calm Calm - N/A   Partly Cloudy
10:56 AM 64.0 °F 19.0 °F 18% 30.09 in 10.0 mi NNE 4.6 mph - N/A   Partly Cloudy
11:56 AM 64.9 °F 21.0 °F 19% 30.08 in 10.0 mi SSE 5.8 mph - N/A   Partly Cloudy
12:56 PM 66.0 °F 18.0 °F 16% 30.05 in 10.0 mi Variable 3.5 mph - N/A   Clear
1:56 PM 69.1 °F 16.0 °F 13% 30.04 in 10.0 mi Calm Calm - N/A   Clear
2:56 PM 69.1 °F 14.0 °F 12% 30.03 in 10.0 mi Calm Calm - N/A   Clear
3:56 PM 69.1 °F 16.0 °F 13% 30.02 in 10.0 mi SSE 4.6 mph - N/A   Clear
4:56 PM 70.0 °F 17.1 °F 13% 30.02 in 10.0 mi Calm Calm - N/A   Clear
5:56 PM 68.0 °F 17.6 °F 15% 30.06 in 10.0 mi Calm Calm - N/A   Clear
6:56 PM 66.0 °F 19.9 °F 17% 30.06 in 10.0 mi South 4.6 mph - N/A   Clear
8:56 PM 64.4 °F 19.4 °F 18% 30.11 in 10.0 mi ENE 11.5 mph - N/A   Clear
9:56 PM 64.0 °F 19.9 °F 18% 30.11 in 10.0 mi NE 9.2 mph - N/A   Partly Cloudy
10:56 PM 62.1 °F 18.0 °F 18% 30.15 in 10.0 mi NNE 11.5 mph - N/A   Partly Cloudy
11:56 PM 60.1 °F 19.0 °F 20% 30.18 in 10.0 mi NE 10.4 mph - N/A   Partly Cloudy